{"data":{"norad_id":59494,"epoch":"2026-05-24T18:39:35.177472Z","epoch_age_seconds":101417,"freshness":"FRESH","line1":"1 59494U 24071L   26144.77749048  .00001977  00000+0  81373-4 0  9997","line2":"2 59494  43.0014 277.7075 0001434 268.4164  91.6523 15.27576082119755","mean_motion":15.27576082,"eccentricity":0.0001434,"inclination_deg":43.0014,"raan_deg":277.7075,"arg_perigee_deg":268.4164,"mean_anomaly_deg":91.6523,"bstar":8.1373e-5,"rev_number":11975,"period_min":94.266990493505,"perigee_km":482.07693219769,"apogee_km":484.04472373475,"semimajor_km":6861.1978279662,"source":"CELESTRAK","updated_at":"2026-05-25T13:38:18.954625Z"}}